Time,TemperatureF,DewpointF,PressureIn,WindDirection,WindDirectionDegrees,WindSpeedMPH,WindSpeedGustMPH,Humidity,HourlyPrecipIn,Conditions,Clouds,dailyrainin,SoftwareType,DateUTC
2013-02-09 11:01:00,43.0,40.0,23.77,East,84,0.0,2.0,88,0.00,,,0.00,,2013-02-09 19:01:00,
2013-02-09 11:11:00,43.0,40.0,23.77,East,84,0.0,2.0,88,0.00,,,0.00,,2013-02-09 19:11:00,
2013-02-09 11:21:00,43.0,40.0,23.77,East,84,0.0,2.0,88,0.00,,,0.00,,2013-02-09 19:21:00,
2013-02-09 11:31:00,43.0,39.0,23.77,East,83,0.0,3.0,87,0.00,,,0.00,,2013-02-09 19:31:00,
2013-02-09 11:41:00,43.0,39.0,23.77,East,83,0.0,3.0,87,0.00,,,0.00,,2013-02-09 19:41:00,
2013-02-09 11:52:00,44.0,40.0,23.77,East,82,0.0,2.0,87,0.00,,,0.00,,2013-02-09 19:52:00,
2013-02-09 12:01:00,46.0,41.0,23.77,NNE,18,1.0,4.0,82,0.00,,,0.00,,2013-02-09 20:01:00,
2013-02-09 12:11:00,46.0,41.0,23.77,NNE,18,1.0,4.0,82,0.00,,,0.00,,2013-02-09 20:11:00,
2013-02-09 12:21:00,46.0,40.0,23.77,East,91,0.0,4.0,79,0.00,,,0.00,,2013-02-09 20:21:00,
2013-02-09 12:31:00,47.0,40.0,23.77,NNE,22,1.0,6.0,77,0.00,,,0.00,,2013-02-09 20:31:00,
2013-02-09 12:41:00,47.0,40.0,23.77,NNE,22,1.0,6.0,77,0.00,,,0.00,,2013-02-09 20:41:00,
2013-02-09 12:52:00,47.0,40.0,23.77,NNE,22,1.0,6.0,77,0.00,,,0.00,,2013-02-09 20:52:00,
2013-02-09 13:01:00,47.0,40.0,23.77,NNE,22,1.0,6.0,77,0.00,,,0.00,,2013-02-09 21:01:00,
2013-02-09 13:11:00,47.0,40.0,23.77,NNE,22,1.0,6.0,77,0.00,,,0.00,,2013-02-09 21:11:00,
2013-02-09 13:21:00,48.0,40.0,23.77,NNW,336,2.0,7.0,73,0.00,,,0.00,,2013-02-09 21:21:00,
2013-02-09 13:31:00,49.0,41.0,23.77,NNW,340,2.0,9.0,74,0.00,,,0.00,,2013-02-09 21:31:00,
2013-02-09 13:41:00,49.0,41.0,23.77,NNW,340,2.0,9.0,74,0.00,,,0.00,,2013-02-09 21:41:00,
2013-02-09 13:51:00,49.0,41.0,23.77,NNW,340,2.0,9.0,74,0.00,,,0.00,,2013-02-09 21:51:00,
2013-02-09 14:01:00,49.0,41.0,23.77,NNW,328,3.0,7.0,75,0.00,,,0.00,,2013-02-09 22:01:00,
2013-02-09 14:11:00,49.0,41.0,23.77,NNW,328,3.0,7.0,75,0.00,,,0.00,,2013-02-09 22:11:00,
2013-02-09 14:21:00,48.0,41.0,23.77,NW,319,3.0,8.0,76,0.00,,,0.00,,2013-02-09 22:21:00,
2013-02-09 14:31:00,48.0,41.0,23.77,WNW,301,4.0,10.0,76,0.00,,,0.00,,2013-02-09 22:31:00,
2013-02-09 14:41:00,48.0,41.0,23.77,WNW,301,4.0,10.0,76,0.00,,,0.00,,2013-02-09 22:41:00,
2013-02-09 14:51:00,48.0,41.0,23.77,WNW,301,4.0,10.0,76,0.00,,,0.00,,2013-02-09 22:51:00,
2013-02-09 15:01:00,48.0,42.0,25.38,NNW,331,2.0,7.0,79,0.00,,,0.00,,2013-02-09 23:01:00,
2013-02-09 15:11:00,48.0,42.0,25.38,NNW,331,2.0,7.0,79,0.00,,,0.00,,2013-02-09 23:11:00,
2013-02-09 15:21:00,48.0,42.0,25.38,NNW,331,2.0,7.0,79,0.00,,,0.00,,2013-02-09 23:21:00,
2013-02-09 15:31:00,48.0,42.0,25.38,NNW,333,3.0,6.0,81,0.00,,,0.00,,2013-02-09 23:31:00,
2013-02-09 15:41:00,48.0,42.0,25.38,NNW,333,3.0,6.0,81,0.00,,,0.00,,2013-02-09 23:41:00,
2013-02-09 15:52:00,48.0,42.0,25.38,NNW,333,3.0,6.0,81,0.00,,,0.00,,2013-02-09 23:52:00,
2013-02-09 16:02:00,47.0,43.0,25.38,NW,313,3.0,10.0,85,0.00,,,0.00,,2013-02-10 00:02:00,
2013-02-09 16:11:00,47.0,43.0,25.38,NW,313,3.0,10.0,85,0.00,,,0.00,,2013-02-10 00:11:00,
2013-02-09 16:21:00,47.0,43.0,25.38,NW,313,3.0,10.0,85,0.00,,,0.00,,2013-02-10 00:21:00,
2013-02-09 16:31:00,46.0,43.0,25.38,NW,311,2.0,11.0,88,0.00,,,0.00,,2013-02-10 00:31:00,
2013-02-09 16:41:00,46.0,43.0,25.38,NW,311,2.0,11.0,88,0.00,,,0.00,,2013-02-10 00:41:00,
2013-02-09 16:52:00,46.0,43.0,25.38,NW,311,2.0,11.0,88,0.00,,,0.00,,2013-02-10 00:52:00,
2013-02-09 17:01:00,45.0,42.0,25.38,WNW,284,3.0,9.0,89,0.00,,,0.00,,2013-02-10 01:01:00,
2013-02-09 17:11:00,45.0,42.0,25.38,WNW,284,3.0,9.0,89,0.00,,,0.00,,2013-02-10 01:11:00,
2013-02-09 17:21:00,45.0,42.0,25.38,WNW,291,2.0,7.0,90,0.00,,,0.00,,2013-02-10 01:21:00,
2013-02-09 17:31:00,44.0,42.0,25.38,WNW,296,0.0,0.0,91,0.00,,,0.00,,2013-02-10 01:31:00,
2013-02-09 17:41:00,44.0,42.0,25.38,WNW,296,0.0,0.0,91,0.00,,,0.00,,2013-02-10 01:41:00,